Terminal Aerodrome Forecast
Issued by NWS

Current Version | Previous Version | Graphics & Text | Print | Product List | Glossary On
Versions: 1 2 3 4 5 6 7 8 9 10 11 12 13 14 15 16 17 18 19
000
FTUS41 KILN 070325 AAA
TAFLUK
TAF AMD
KLUK 070325Z 0703/0724 30010KT P6SM OVC022
     FM070500 29008KT P6SM BKN250
     FM071300 26007KT P6SM BKN200
     FM072300 28006KT P6SM BKN120=

USA.gov is the U.S. government's official web portal to all federal, state and local government web resources and services.